| time (UTC) | temp F | wind direction | speed MPH | gust MPH | rain 1hr in | rain 24hr in | rain mn in | humidity % | barometer mb |
| 20260906020100 | 58 | 117 | 0.0 | 0.0 | 0.00 | 0.01 | 0.01 | 92 | 1017.3 |
| 20260906014553 | 59 | 117 | 0.0 | 0.0 | 0.00 | 0.01 | 0.01 | 91 | 1017.3 |
| 20260906013103 | 60 | 117 | 0.0 | 0.0 | 0.00 | 0.01 | 0.01 | 91 | 1017.2 |
| 20260906011551 | 61 | 117 | 0.0 | 0.0 | 0.00 | 0.01 | 0.01 | 90 | 1017.1 |
| 20260906010053 | 61 | 117 | 0.0 | 0.0 | 0.00 | 0.01 | 0.01 | 88 | 1017.0 |
| 20260906004552 | 62 | 117 | 0.0 | 0.0 | 0.00 | 0.01 | 0.01 | 86 | 1017.1 |
| 20260906003050 | 63 | 117 | 0.0 | 0.0 | 0.00 | 0.01 | 0.01 | 84 | 1017.2 |
| 20260906001550 | 65 | 117 | 0.0 | 0.0 | 0.00 | 0.01 | 0.01 | 81 | 1017.1 |
| 20260906000101 | 66 | 117 | 0.0 | 0.0 | 0.00 | 0.01 | 0.01 | 79 | 1017.0 |
| 20260905234601 | 68 | 117 | 0.0 | 0.0 | 0.00 | 0.01 | 0.01 | 75 | 1016.8 |
| 20260905233048 | 69 | 117 | 0.0 | 0.0 | 0.00 | 0.01 | 0.01 | 72 | 1016.7 |
| 20260905231547 | 71 | 117 | 0.0 | 0.0 | 0.00 | 0.01 | 0.01 | 70 | 1016.7 |
| 20260905230045 | 72 | 117 | 0.0 | 0.0 | 0.00 | 0.01 | 0.01 | 65 | 1016.7 |
| 20260905224544 | 73 | 117 | 0.0 | 2.0 | 0.00 | 0.01 | 0.01 | 63 | 1016.6 |
| 20260905223048 | 73 | 122 | 0.0 | 1.0 | 0.00 | 0.01 | 0.01 | 61 | 1016.5 |
| 20260905221541 | 74 | 115 | 0.0 | 2.0 | 0.00 | 0.01 | 0.01 | 61 | 1016.4 |
| 20260905220041 | 74 | 115 | 0.0 | 1.0 | 0.00 | 0.01 | 0.01 | 60 | 1016.3 |
| 20260905214541 | 75 | 119 | 0.0 | 1.0 | 0.00 | 0.01 | 0.01 | 60 | 1016.4 |
| 20260905213039 | 75 | 117 | 0.0 | 2.0 | 0.00 | 0.01 | 0.01 | 58 | 1016.3 |
| 20260905211539 | 75 | 106 | 0.0 | 3.0 | 0.00 | 0.01 | 0.01 | 58 | 1016.2 |
| 20260905210049 | 76 | 103 | 1.0 | 6.0 | 0.00 | 0.01 | 0.01 | 57 | 1016.3 |
| 20260905204537 | 75 | 120 | 0.0 | 5.0 | 0.00 | 0.01 | 0.01 | 57 | 1016.4 |
| 20260905203046 | 76 | 146 | 1.0 | 4.0 | 0.00 | 0.01 | 0.01 | 57 | 1016.4 |
| 20260905201536 | 76 | 115 | 0.0 | 3.0 | 0.00 | 0.01 | 0.01 | 56 | 1016.4 |
| 20260905200036 | 76 | 94 | 1.0 | 4.0 | 0.00 | 0.01 | 0.01 | 57 | 1016.4 |
| 20260905194534 | 76 | 84 | 0.0 | 3.0 | 0.00 | 0.01 | 0.01 | 60 | 1016.4 |
| 20260905193035 | 77 | 101 | 0.0 | 3.0 | 0.00 | 0.01 | 0.01 | 60 | 1016.5 |
| 20260905191537 | 77 | 124 | 0.0 | 4.0 | 0.00 | 0.01 | 0.01 | 64 | 1016.8 |
| 20260905190033 | 77 | 126 | 0.0 | 3.0 | 0.00 | 0.01 | 0.01 | 63 | 1016.9 |
| 20260905184531 | 77 | 122 | 1.0 | 4.0 | 0.00 | 0.01 | 0.01 | 60 | 1016.9 |
| 20260905183029 | 76 | 119 | 0.0 | 4.0 | 0.00 | 0.01 | 0.01 | 62 | 1016.9 |
| 20260905181528 | 76 | 108 | 2.0 | 6.0 | 0.00 | 0.01 | 0.01 | 59 | 1017.0 |
| 20260905180026 | 76 | 111 | 0.0 | 3.0 | 0.00 | 0.01 | 0.01 | 63 | 1017.0 |
| 20260905174525 | 75 | 130 | 0.0 | 2.0 | 0.00 | 0.01 | 0.01 | 64 | 1017.0 |
| 20260905173024 | 75 | 111 | 0.0 | 1.0 | 0.00 | 0.01 | 0.01 | 64 | 1017.1 |
| 20260905171528 | 75 | 123 | 0.0 | 1.0 | 0.00 | 0.01 | 0.01 | 67 | 1017.1 |
| 20260905170024 | 74 | 65 | 0.0 | 2.0 | 0.00 | 0.01 | 0.01 | 70 | 1017.0 |
| 20260905164519 | 74 | 111 | 0.0 | 2.0 | 0.00 | 0.01 | 0.01 | 72 | 1017.2 |
| 20260905163022 | 74 | 136 | 0.0 | 3.0 | 0.00 | 0.01 | 0.01 | 73 | 1017.4 |
| 20260905161517 | 74 | 108 | 0.0 | 3.0 | 0.00 | 0.01 | 0.01 | 73 | 1017.4 |
| 20260905160017 | 74 | 58 | 0.0 | 2.0 | 0.00 | 0.01 | 0.01 | 73 | 1017.4 |
| 20260905154515 | 75 | 176 | 0.0 | 2.0 | 0.00 | 0.01 | 0.01 | 74 | 1017.3 |
| 20260905153014 | 74 | 113 | 0.0 | 2.0 | 0.00 | 0.01 | 0.01 | 72 | 1017.3 |
| 20260905151512 | 74 | 117 | 0.0 | 1.0 | 0.00 | 0.01 | 0.01 | 74 | 1017.2 |
| 20260905150010 | 74 | 117 | 0.0 | 0.0 | 0.00 | 0.01 | 0.01 | 75 | 1017.0 |
| 20260905144506 | 72 | 111 | 0.0 | 1.0 | 0.00 | 0.01 | 0.01 | 78 | 1016.9 |
| 20260905143004 | 72 | 123 | 0.0 | 1.0 | 0.00 | 0.01 | 0.01 | 79 | 1016.8 |
| 20260905141502 | 71 | 127 | 0.0 | 2.0 | 0.00 | 0.01 | 0.01 | 82 | 1016.7 |
| 20260905140104 | 70 | 113 | 0.0 | 2.0 | 0.01 | 0.01 | 0.01 | 86 | 1016.6 |
| 20260905134603 | 69 | 127 | 0.0 | 1.0 | 0.01 | 0.01 | 0.01 | 91 | 1016.5 |
| 20260905133052 | 67 | 136 | 0.0 | 0.0 | 0.01 | 0.01 | 0.01 | 89 | 1016.7 |
| 20260905131548 | 65 | 124 | 0.0 | 0.0 | 0.01 | 0.01 | 0.01 | 85 | 1016.8 |
| 20260905130048 | 63 | 124 | 0.0 | 0.0 | 0.00 | 0.00 | 0.00 | 83 | 1016.8 |
| 20260905124544 | 60 | 124 | 0.0 | 0.0 | 0.00 | 0.00 | 0.00 | 84 | 1016.7 |
| 20260905123042 | 58 | 124 | 0.0 | 0.0 | 0.00 | 0.00 | 0.00 | 84 | 1016.7 |
| 20260905121540 | 56 | 124 | 0.0 | 0.0 | 0.00 | 0.00 | 0.00 | 86 | 1016.6 |
| 20260905120048 | 56 | 124 | 0.0 | 0.0 | 0.00 | 0.00 | 0.00 | 87 | 1016.6 |
| 20260905114537 | 55 | 124 | 0.0 | 0.0 | 0.00 | 0.03 | 0.00 | 88 | 1016.3 |
| 20260905113036 | 55 | 124 | 0.0 | 0.0 | 0.00 | 0.03 | 0.00 | 89 | 1016.2 |
| 20260905111538 | 55 | 124 | 0.0 | 0.0 | 0.00 | 0.03 | 0.00 | 89 | 1016.1 |
| 20260905110033 | 55 | 124 | 0.0 | 0.0 | 0.00 | 0.03 | 0.00 | 89 | 1016.0 |
| 20260905104531 | 56 | 124 | 0.0 | 0.0 | 0.00 | 0.42 | 0.00 | 89 | 1016.1 |
| 20260905103029 | 56 | 124 | 0.0 | 0.0 | 0.00 | 0.42 | 0.00 | 89 | 1016.0 |
| 20260905101531 | 56 | 124 | 0.0 | 0.0 | 0.00 | 0.42 | 0.00 | 89 | 1016.0 |
| 20260905100026 | 57 | 124 | 0.0 | 0.0 | 0.00 | 0.42 | 0.00 | 89 | 1015.7 |
| 20260905094544 | 57 | 124 | 0.0 | 0.0 | 0.00 | 0.42 | 0.00 | 89 | 1015.5 |
| 20260905093023 | 57 | 124 | 0.0 | 0.0 | 0.00 | 0.42 | 0.00 | 89 | 1015.6 |
| 20260905091521 | 57 | 124 | 0.0 | 0.0 | 0.00 | 0.42 | 0.00 | 90 | 1015.6 |
| 20260905090019 | 58 | 124 | 0.0 | 0.0 | 0.00 | 0.42 | 0.00 | 90 | 1015.6 |
| 20260905084518 | 58 | 124 | 0.0 | 0.0 | 0.00 | 0.42 | 0.00 | 89 | 1015.6 |
| 20260905083018 | 59 | 124 | 0.0 | 0.0 | 0.00 | 0.42 | 0.00 | 90 | 1015.6 |
| 20260905081514 | 59 | 124 | 0.0 | 0.0 | 0.00 | 0.42 | 0.00 | 90 | 1015.4 |
| 20260905080011 | 60 | 124 | 0.0 | 0.0 | 0.00 | 0.42 | 0.00 | 89 | 1015.4 |
| 20260905074510 | 61 | 124 | 0.0 | 0.0 | 0.00 | 0.42 | 0.00 | 88 | 1015.5 |
| 20260905073009 | 60 | 124 | 0.0 | 0.0 | 0.00 | 0.42 | 0.00 | 88 | 1015.5 |
| 20260905071508 | 60 | 124 | 0.0 | 0.0 | 0.00 | 0.42 | 0.00 | 89 | 1015.5 |
| 20260905070006 | 60 | 124 | 0.0 | 0.0 | 0.00 | 0.42 | 0.00 | 89 | 1015.3 |
| 20260905064505 | 61 | 124 | 0.0 | 0.0 | 0.00 | 0.42 | 0.00 | 89 | 1015.2 |
| 20260905063006 | 61 | 124 | 0.0 | 0.0 | 0.00 | 0.42 | 0.00 | 89 | 1015.2 |
| 20260905061504 | 61 | 124 | 0.0 | 0.0 | 0.00 | 0.42 | 0.00 | 90 | 1015.4 |
| 20260905060002 | 61 | 124 | 0.0 | 0.0 | 0.00 | 0.42 | 0.00 | 89 | 1015.3 |
| 20260905054501 | 61 | 124 | 0.0 | 0.0 | 0.00 | 0.42 | 0.00 | 89 | 1015.3 |
| 20260905053100 | 62 | 124 | 0.0 | 0.0 | 0.00 | 0.42 | 0.00 | 89 | 1015.3 |
| 20260905051610 | 62 | 124 | 0.0 | 0.0 | 0.00 | 0.42 | 0.00 | 90 | 1015.3 |
| 20260905050103 | 62 | 124 | 0.0 | 0.0 | 0.00 | 0.42 | 0.00 | 90 | 1015.2 |
| 20260905044557 | 62 | 110 | 0.0 | 0.0 | 0.00 | 0.42 | 0.00 | 89 | 1015.1 |
| 20260905043055 | 62 | 110 | 0.0 | 0.0 | 0.00 | 0.42 | 0.00 | 90 | 1015.2 |
| 20260905041556 | 63 | 110 | 0.0 | 0.0 | 0.00 | 0.42 | 0.00 | 90 | 1015.3 |
| 20260905040104 | 63 | 110 | 0.0 | 0.0 | 0.00 | 0.42 | 0.00 | 90 | 1015.3 |
| 20260905034550 | 63 | 110 | 0.0 | 0.0 | 0.00 | 0.42 | 0.42 | 90 | 1015.4 |
| 20260905033101 | 63 | 110 | 0.0 | 0.0 | 0.00 | 0.42 | 0.42 | 90 | 1015.4 |
| 20260905031550 | 63 | 110 | 0.0 | 0.0 | 0.00 | 0.42 | 0.42 | 91 | 1015.3 |
| 20260905030054 | 63 | 110 | 0.0 | 0.0 | 0.00 | 0.42 | 0.42 | 91 | 1015.2 |
| 20260905024602 | 63 | 110 | 0.0 | 0.0 | 0.00 | 0.42 | 0.42 | 92 | 1015.3 |
| 20260905023051 | 64 | 110 | 0.0 | 0.0 | 0.00 | 0.42 | 0.42 | 92 | 1015.2 |
| 20260905021548 | 64 | 110 | 0.0 | 0.0 | 0.00 | 0.42 | 0.42 | 92 | 1015.3 |